Total_Precipitation_Accumulation
0.03 0.02 0.03 0.02 0.02 0.02 0.01 0.01 0.02 0.01 0.00 0.00 0.00 0.00 0.00 0.00 0.00 0.00 0.00 0.00 0.00 0.00 0.00 0.00 0.00 0.00 0.00 0.00 0.00 0.00 0.00 0.00 0.00 0.00 0.00 0.00 0.00 0.00 0.00 0.00 0.00 0.00 0.00 0.00 0.00 0.00 0.00
0.03 0.03 0.03 0.03 0.02 0.01 0.01 0.01 0.01 0.01 0.00 0.00 0.00 0.00 0.00 0.00 0.00 0.00 0.00 0.00 0.00 0.00 0.00 0.00 0.00 0.01 0.00 0.00 0.00 0.00 0.00 0.00 0.00 0.00 0.00 0.00 0.00 0.00 0.00 0.00 0.00 0.00 0.00 0.00 0.00 0.00 0.00
0.04 0.04 0.03 0.03 0.03 0.02 0.02 0.01 0.01 0.01 0.01 0.01 0.01 0.01 0.00 0.00 0.00 0.00 0.00 0.00 0.00 0.00 0.00 0.00 0.00 0.02 0.01 0.00 0.00 0.00 0.00 0.00 0.00 0.00 0.00 0.00 0.00 0.00 0.00 0.00 0.00 0.00 0.00 0.00 0.00 0.00 0.00
0.04 0.04 0.04 0.06 0.05 0.04 0.03 0.02 0.02 0.01 0.01 0.01 0.01 0.00 0.00 0.00 0.00 0.00 0.00 0.00 0.00 0.00 0.00 0.00 0.00 0.01 0.00 0.00 0.00 0.00 0.00 0.00 0.00 0.00 0.00 0.00 0.00 0.00 0.00 0.00 0.00 0.00 0.00 0.00 0.00 0.00 0.00
0.06 0.06 0.05 0.05 0.06 0.05 0.04 0.03 0.02 0.01 0.01 0.01 0.01 0.01 0.00 0.00 0.00 0.00 0.00 0.00 0.00 0.00 0.00 0.00 0.00 0.00 0.00 0.00 0.00 0.00 0.00 0.00 0.00 0.00 0.00 0.00 0.00 0.00 0.00 0.00 0.00 0.00 0.00 0.00 0.00 0.00 0.00
0.06 0.05 0.04 0.04 0.06 0.05 0.05 0.04 0.03 0.02 0.02 0.01 0.01 0.01 0.01 0.00 0.00 0.00 0.00 0.00 0.00 0.00 0.00 0.00 0.01 0.00 0.00 0.00 0.00 0.00 0.00 0.00 0.00 0.00 0.00 0.00 0.00 0.00 0.00 0.00 0.00 0.00 0.00 0.00 0.00 0.00 0.00
0.04 0.03 0.03 0.04 0.05 0.05 0.05 0.05 0.05 0.04 0.02 0.02 0.01 0.01 0.01 0.00 0.00 0.00 0.00 0.00 0.00 0.00 0.00 0.00 0.00 0.00 0.00 0.00 0.00 0.00 0.00 0.00 0.00 0.00 0.00 0.00 0.00 0.00 0.00 0.00 0.00 0.00 0.00 0.00 0.00 0.00 0.00
0.06 0.06 0.05 0.06 0.07 0.08 0.07 0.07 0.06 0.04 0.03 0.03 0.02 0.02 0.01 0.01 0.00 0.00 0.00 0.00 0.00 0.00 0.00 0.00 0.00 0.00 0.00 0.00 0.00 0.00 0.00 0.00 0.00 0.00 0.00 0.00 0.00 0.00 0.00 0.00 0.00 0.00 0.00 0.00 0.00 0.00 0.00
0.10 0.10 0.10 0.09 0.08 0.07 0.06 0.07 0.08 0.07 0.05 0.04 0.03 0.02 0.02 0.02 0.00 0.00 0.00 0.00 0.00 0.00 0.00 0.00 0.00 0.00 0.00 0.00 0.00 0.00 0.00 0.00 0.00 0.00 0.00 0.00 0.00 0.00 0.00 0.00 0.00 0.00 0.00 0.00 0.00 0.00 0.00
0.11 0.11 0.10 0.09 0.09 0.08 0.07 0.08 0.06 0.05 0.05 0.04 0.02 0.02 0.03 0.04 0.00 0.00 0.00 0.00 0.00 0.00 0.00 0.00 0.00 0.00 0.00 0.00 0.00 0.00 0.00 0.00 0.00 0.00 0.00 0.00 0.00 0.00 0.00 0.00 0.00 0.00 0.00 0.00 0.00 0.00 0.00
0.08 0.07 0.07 0.07 0.08 0.08 0.07 0.06 0.05 0.04 0.06 0.06 0.04 0.03 0.06 0.08 0.01 0.00 0.00 0.00 0.00 0.01 0.00 0.00 0.00 0.00 0.00 0.00 0.00 0.00 0.00 0.00 0.00 0.00 0.00 0.00 0.00 0.00 0.00 0.00 0.00 0.00 0.00 0.00 0.00 0.00 0.00
0.10 0.09 0.08 0.08 0.09 0.09 0.08 0.08 0.07 0.05 0.06 0.06 0.06 0.07 0.14 0.12 0.04 0.00 0.00 0.02 0.05 0.03 0.00 0.00 0.00 0.00 0.00 0.00 0.00 0.00 0.00 0.00 0.00 0.00 0.00 0.00 0.00 0.00 0.00 0.00 0.00 0.00 0.00 0.00 0.00 0.00 0.03
0.11 0.10 0.10 0.11 0.11 0.10 0.09 0.10 0.08 0.07 0.07 0.07 0.08 0.08 0.16 0.09 0.04 0.08 0.14 0.16 0.15 0.04 0.00 0.00 0.00 0.00 0.00 0.00 0.00 0.00 0.00 0.00 0.00 0.00 0.00 0.00 0.00 0.00 0.00 0.00 0.00 0.00 0.00 0.00 0.02 0.00 0.01
0.11 0.10 0.09 0.07 0.07 0.07 0.07 0.07 0.08 0.08 0.09 0.11 0.11 0.14 0.13 0.09 0.04 0.07 0.21 0.32 0.20 0.00 0.00 0.00 0.00 0.00 0.00 0.00 0.00 0.00 0.00 0.00 0.00 0.00 0.00 0.00 0.00 0.00 0.00 0.00 0.00 0.00 0.00 0.00 0.01 0.02 0.04
0.06 0.07 0.08 0.08 0.08 0.08 0.09 0.08 0.09 0.09 0.10 0.11 0.20 0.15 0.14 0.05 0.06 0.21 0.33 0.24 0.04 0.00 0.00 0.00 0.00 0.00 0.00 0.00 0.00 0.00 0.00 0.00 0.00 0.00 0.00 0.00 0.00 0.00 0.00 0.00 0.00 0.00 0.00 0.00 0.00 0.01 0.03
0.08 0.07 0.07 0.06 0.06 0.05 0.05 0.07 0.07 0.07 0.10 0.18 0.31 0.32 0.14 0.07 0.28 0.54 0.57 0.20 0.00 0.00 0.00 0.00 0.00 0.00 0.01 0.00 0.00 0.00 0.00 0.00 0.00 0.00 0.00 0.00 0.00 0.00 0.00 0.00 0.00 0.00 0.00 0.00 0.00 0.00 0.00
0.06 0.07 0.06 0.07 0.08 0.09 0.11 0.09 0.08 0.09 0.13 0.33 0.77 0.76 0.19 0.08 0.72 1.14 0.69 0.20 0.02 0.00 0.01 0.02 0.01 0.03 0.03 0.04 0.02 0.01 0.01 0.08 0.03 0.01 0.01 0.02 0.01 0.00 0.00 0.00 0.00 0.00 0.00 0.00 0.00 0.00 0.00
0.07 0.08 0.07 0.07 0.07 0.07 0.08 0.10 0.12 0.15 0.28 0.69 1.25 0.99 0.26 0.27 1.01 0.94 0.32 0.10 0.05 0.01 0.01 0.05 0.02 0.01 0.08 0.07 0.05 0.05 0.11 0.07 0.07 0.01 0.00 0.02 0.04 0.02 0.00 0.00 0.00 0.00 0.00 0.00 0.00 0.00 0.00
0.09 0.09 0.08 0.08 0.09 0.12 0.12 0.11 0.13 0.16 0.38 0.94 1.42 0.77 0.51 0.62 0.65 0.19 0.14 0.14 0.09 0.06 0.03 0.03 0.03 0.01 0.02 0.04 0.02 0.06 0.06 0.02 0.01 0.00 0.01 0.01 0.03 0.02 0.00 0.00 0.01 0.01 0.00 0.00 0.00 0.00 0.00
0.12 0.12 0.12 0.13 0.13 0.14 0.15 0.18 0.23 0.27 0.42 1.13 1.86 0.91 0.91 1.02 0.43 0.13 0.16 0.19 0.16 0.07 0.06 0.04 0.02 0.02 0.03 0.02 0.00 0.01 0.05 0.04 0.02 0.01 0.02 0.03 0.03 0.04 0.03 0.07 0.02 0.00 0.00 0.00 0.01 0.01 0.00
0.17 0.17 0.18 0.20 0.23 0.25 0.25 0.26 0.29 0.36 0.62 1.81 2.51 0.92 0.27 0.62 0.33 0.07 0.11 0.18 0.18 0.17 0.07 0.05 0.09 0.04 0.02 0.04 0.02 0.01 0.02 0.03 0.02 0.03 0.07 0.10 0.04 0.00 0.01 0.00 0.00 0.00 0.00 0.00 0.00 0.01 0.01
0.22 0.22 0.22 0.23 0.28 0.35 0.41 0.42 0.40 0.44 0.81 2.38 2.54 0.65 0.15 0.08 0.11 0.26 0.15 0.09 0.06 0.09 0.17 0.10 0.08 0.05 0.01 0.04 0.04 0.04 0.04 0.09 0.07 0.07 0.08 0.21 0.20 0.05 0.01 0.00 0.00 0.00 0.00 0.00 0.00 0.00 0.00
0.18 0.18 0.17 0.17 0.19 0.23 0.31 0.44 0.59 0.66 1.24 2.70 1.76 0.37 0.24 0.19 0.14 0.27 0.24 0.10 0.04 0.05 0.06 0.06 0.07 0.07 0.08 0.03 0.04 0.03 0.02 0.05 0.08 0.09 0.17 0.23 0.37 0.33 0.16 0.07 0.05 0.07 0.00 0.00 0.00 0.00 0.00
0.07 0.07 0.08 0.07 0.07 0.09 0.12 0.15 0.30 0.74 1.54 1.89 1.24 0.26 0.42 0.42 0.13 0.13 0.05 0.05 0.05 0.03 0.05 0.03 0.08 0.11 0.05 0.07 0.03 0.02 0.02 0.03 0.02 0.03 0.07 0.20 0.30 0.35 0.21 0.20 0.31 0.09 0.01 0.01 0.00 0.00 0.00
0.07 0.07 0.07 0.07 0.08 0.10 0.11 0.10 0.12 0.26 1.12 2.11 1.66 0.46 0.26 0.29 0.12 0.09 0.10 0.12 0.10 0.07 0.07 0.07 0.06 0.15 0.15 0.13 0.10 0.06 0.03 0.01 0.01 0.02 0.03 0.04 0.15 0.43 0.38 0.35 0.20 0.12 0.11 0.08 0.08 0.03 0.02
0.08 0.10 0.11 0.10 0.09 0.08 0.10 0.11 0.11 0.12 0.32 1.62 2.55 1.09 0.74 0.41 0.16 0.04 0.07 0.08 0.13 0.14 0.13 0.06 0.17 0.15 0.18 0.24 0.20 0.15 0.10 0.08 0.07 0.07 0.03 0.04 0.07 0.20 0.26 0.20 0.08 0.14 0.06 0.06 0.02 0.14 0.07
0.13 0.15 0.15 0.14 0.14 0.12 0.09 0.09 0.10 0.13 0.19 0.47 1.47 1.31 1.68 1.10 0.11 0.02 0.07 0.08 0.09 0.14 0.18 0.17 0.25 0.23 0.22 0.26 0.19 0.10 0.05 0.06 0.08 0.19 0.16 0.06 0.10 0.12 0.10 0.18 0.05 0.06 0.11 0.13 0.40 0.32 0.20
0.14 0.15 0.14 0.14 0.14 0.16 0.16 0.13 0.11 0.12 0.19 0.33 0.49 0.47 1.48 1.19 0.23 0.04 0.02 0.04 0.07 0.18 0.24 0.26 0.31 0.28 0.34 0.27 0.16 0.09 0.04 0.04 0.02 0.09 0.21 0.21 0.16 0.12 0.12 0.17 0.08 0.04 0.16 0.43 0.54 0.30 0.48
0.08 0.16 0.15 0.14 0.15 0.15 0.15 0.16 0.19 0.17 0.20 0.38 0.39 0.22 0.60 0.94 0.38 0.20 0.05 0.02 0.06 0.09 0.16 0.47 0.19 0.07 0.03 0.06 0.09 0.11 0.09 0.06 0.04 0.03 0.05 0.08 0.12 0.23 0.13 0.12 0.16 0.16 0.17 0.08 0.04 0.04 0.04